Location: Ferris
(32.5340°N, 96.6656°W)
Time: 23:00:31
(UTC+00:00)

Cosmos 1354 Rocket - Pass Details

Date: 17 May 2026
Orbit: 761 x 778 km, 74.0° (Epoch: 7 June)

Event Time Altitude Azimuth Distance (km) Brightness Sun altitude
Rises 04:06:56 0° 352° (N) 3,232 8.1 -28.8°
Reaches altitude 10° 04:09:29 10° 1° (N) 2,301 7.1 -29.1°
Enters shadow 04:13:01 33° 36° (NE) 1,268 5.2 -29.5°
